Weather History for Columbus, OH

Change the Weather History Date:

Monday, March 11, 2013

  Actual Average Record
Temperature  
Mean Temperature 51 °F 40 °F  
Max Temperature 62 °F 49 °F 76 °F (1990)
Min Temperature 40 °F 31 °F 8 °F (1948)
Degree Days  
Heating Degree Days 14 25  
Month to date heating degree days 294 293  
Since 1 July heating degree days 4152 4288  
Cooling Degree Days 0 0  
Month to date cooling degree days 0 0  
Year to date cooling degree days 0 0  
Moisture  
Dew Point 43 °F    
Average Humidity 65    
Maximum Humidity 93    
Minimum Humidity 36    
Precipitation  
Precipitation 0.52 in 0.09 in 1.08 in (1890)
Month to date precipitation 1.37 0.94  
Year to date precipitation 5.44 5.92  
Snow  
Snow 0.00 in 0.20 in 3.70 in (1959)
Month to date snowfall 7.9 2.0  
Since 1 July snowfall 36.9 23.4  
Snow Depth 0.00 in    
Sea Level Pressure  
Sea Level Pressure 29.74 in    
Wind  
Wind Speed 13 mph (SSW)    
Max Wind Speed 30 mph    
Max Gust Speed 38 mph    
Visibility 9 miles    
Events Rain    
T = Trace of Precipitation, MM = Missing Value Source: NWS Daily Summary

Daily Weather History Graph

Daily Weather History Graph

Search for Another Location

Airport:

Trip Planner

Search our weather history database for the weather conditions in past years. The results will help you decide how hot, cold, wet, or windy it might be!

Date:

Astronomy

Mar. 11, 2013 Rise Set
Actual Time 7:49 AM EDT 7:34 PM EDT
Civil Twilight 7:22 AM EDT 8:01 PM EDT
Nautical Twilight 6:50 AM EDT 8:32 PM EDT
Astronomical Twilight 6:19 AM EDT 9:04 PM EDT
Moon 7:22 AM EDT (3/11) 7:45 PM EDT (3/11)
Length of Visible Light 12h 39m
Length of Day
11h 45m
Waning Crescent, 0% of the Moon is Illuminated
Mar 11
Waning Crescent
Mar 11
New
Mar 19
First Quarter
Mar 27
Full
Apr 3
Last Quarter

Hourly Weather History & Observations

Time (EDT) Temp. Windchill Dew Point Humidity Pressure Visibility Wind Dir Wind Speed Gust Speed Precip Events Conditions
12:51 AM 61.0 °F - 36.0 °F 39% 29.87 in 10.0 mi South 8.1 mph - N/A   Overcast
1:51 AM 62.1 °F - 36.0 °F 38% 29.86 in 10.0 mi South 9.2 mph - N/A   Overcast
2:51 AM 61.0 °F - 37.9 °F 42% 29.85 in 10.0 mi South 16.1 mph 21.9 mph 0.00 in Rain Light Rain
3:51 AM 60.1 °F - 36.0 °F 41% 29.83 in 10.0 mi South 10.4 mph - 0.00 in   Overcast
4:51 AM 54.0 °F - 44.1 °F 69% 29.85 in 5.0 mi SSW 5.8 mph - 0.04 in Rain Rain
5:51 AM 51.1 °F - 46.9 °F 86% 29.85 in 10.0 mi Calm Calm - 0.06 in Rain Light Rain
6:51 AM 51.1 °F - 46.9 °F 86% 29.84 in 10.0 mi ESE 6.9 mph - 0.04 in Rain Light Rain
7:51 AM 53.1 °F - 43.0 °F 69% 29.83 in 10.0 mi SE 5.8 mph - 0.00 in Rain Light Rain
8:51 AM 53.1 °F - 41.0 °F 64% 29.82 in 10.0 mi SE 8.1 mph - N/A   Overcast
9:51 AM 52.0 °F - 42.1 °F 69% 29.84 in 6.0 mi SSE 8.1 mph - 0.04 in Rain Light Rain
10:51 AM 51.1 °F - 44.1 °F 77% 29.80 in 8.0 mi SE 10.4 mph - 0.09 in Rain Light Rain
11:51 AM 52.0 °F - 45.0 °F 77% 29.74 in 10.0 mi SE 10.4 mph - 0.04 in Rain Light Rain
12:51 PM 54.0 °F - 45.0 °F 72% 29.72 in 10.0 mi SE 17.3 mph - 0.00 in Rain Light Rain
1:51 PM 55.9 °F - 46.0 °F 69% 29.68 in 10.0 mi SSE 23.0 mph 31.1 mph 0.00 in Rain Light Rain
2:51 PM 57.0 °F - 46.9 °F 69% 29.65 in 10.0 mi SSE 20.7 mph 26.5 mph 0.00 in Rain Light Rain
3:51 PM 57.0 °F - 48.0 °F 72% 29.62 in 10.0 mi SSE 23.0 mph 32.2 mph 0.01 in Rain Light Rain
4:51 PM 55.9 °F - 50.0 °F 80% 29.60 in 8.0 mi South 20.7 mph 33.4 mph 0.04 in Rain Light Rain
5:09 PM 55.4 °F - 50.0 °F 82% 29.63 in 1.2 mi WSW 29.9 mph 38.0 mph 0.00 in Rain Heavy Rain
5:13 PM 51.8 °F - 48.2 °F 88% 29.63 in 3.0 mi WSW 17.3 mph 38.0 mph 0.07 in Rain Heavy Rain
5:22 PM 51.8 °F - 48.2 °F 88% 29.63 in 5.0 mi West 16.1 mph - 0.11 in Rain Light Rain
5:29 PM 50.0 °F - 48.2 °F 94% 29.64 in 5.0 mi West 15.0 mph - 0.11 in Rain Rain
5:39 PM 50.0 °F - 46.4 °F 87% 29.64 in 5.0 mi West 18.4 mph - 0.15 in Rain Rain
5:51 PM 48.9 °F - 46.0 °F 90% 29.65 in 8.0 mi West 15.0 mph 24.2 mph 0.15 in Rain Light Rain
6:03 PM 48.2 °F - 46.4 °F 93% 29.65 in 9.0 mi WSW 11.5 mph - 0.01 in Rain Light Rain
6:27 PM 48.2 °F - 44.6 °F 87% 29.66 in 10.0 mi WSW 17.3 mph 24.2 mph 0.01 in   Overcast
6:43 PM 48.2 °F - 44.6 °F 87% 29.66 in 10.0 mi WSW 16.1 mph - 0.01 in   Overcast
6:51 PM 48.9 °F - 44.1 °F 83% 29.67 in 10.0 mi WSW 16.1 mph - 0.01 in   Overcast
7:12 PM 48.2 °F - 42.8 °F 82% 29.68 in 7.0 mi SW 17.3 mph 26.5 mph 0.00 in Rain Light Rain
7:51 PM 48.9 °F - 41.0 °F 74% 29.71 in 10.0 mi SW 12.7 mph 21.9 mph 0.00 in   Overcast
8:26 PM 48.2 °F - 42.8 °F 82% 29.72 in 10.0 mi WSW 12.7 mph - N/A   Overcast
8:51 PM 46.4 °F 39.5 °F 41.0 °F 81% 29.74 in 10.0 mi West 17.3 mph - N/A   Overcast
9:48 PM 44.6 °F 37.4 °F 37.4 °F 76% 29.77 in 10.0 mi WSW 16.1 mph 26.5 mph N/A   Overcast
9:51 PM 45.0 °F 37.4 °F 37.0 °F 74% 29.78 in 10.0 mi WSW 18.4 mph 26.5 mph N/A   Overcast
10:51 PM 44.1 °F 36.2 °F 36.0 °F 73% 29.81 in 10.0 mi West 18.4 mph - N/A   Overcast
11:11 PM 42.8 °F 35.4 °F 35.6 °F 76% 29.81 in 10.0 mi West 15.0 mph - N/A   Overcast
11:37 PM 42.8 °F 35.1 °F 33.8 °F 70% 29.81 in 10.0 mi WSW 16.1 mph - N/A   Overcast
11:51 PM 43.0 °F 36.0 °F 35.1 °F 74% 29.82 in 10.0 mi WSW 13.8 mph - N/A   Overcast